Weather History for Dayton Wright, OH

Change the Weather History Date:

Friday, January 25, 2013

  Actual Average (KFFO) Record (KFFO)
Temperature  
Mean Temperature 21 °F -  
Max Temperature 25 °F 34 °F 44 °F (2002)
Min Temperature 17 °F 17 °F -7 °F (2000)
Degree Days  
Heating Degree Days 44    
Moisture  
Dew Point 14 °F    
Average Humidity 74    
Maximum Humidity 93    
Minimum Humidity 50    
Precipitation  
Precipitation 0.10 in - - ()
Sea Level Pressure  
Sea Level Pressure 30.15 in    
Wind  
Wind Speed 7 mph (South)    
Max Wind Speed 13 mph    
Max Gust Speed 17 mph    
Visibility 8 miles    
Events Fog , Snow    
Averages and records for this station are not official NWS values.
T = Trace of Precipitation, MM = Missing Value Source: NWS Daily Summary

Daily Weather History Graph

Daily Weather History Graph

Search for Another Location

Airport:

Trip Planner

Search our weather history database for the weather conditions in past years. The results will help you decide how hot, cold, wet, or windy it might be!

Date:

Astronomy

Jan. 25, 2013 Rise Set
Actual Time 7:50 AM EST 5:48 PM EST
Civil Twilight 7:21 AM EST 6:17 PM EST
Nautical Twilight 6:48 AM EST 6:50 PM EST
Astronomical Twilight 6:16 AM EST 7:22 PM EST
Moon 4:45 PM EST (1/25) 6:29 AM EST (1/25)
Length of Visible Light 10h 56m
Length of Day
9h 58m
Waxing Gibbous, 98% of the Moon is Illuminated
Jan 25
Waxing Gibbous
Jan 26
Full
Feb 3
Last Quarter
Feb 10
New
Feb 17
First Quarter

Hourly Weather History & Observations

Time (EST) Temp. Windchill Dew Point Humidity Pressure Visibility Wind Dir Wind Speed Gust Speed Precip Events Conditions
12:53 AM 19.0 °F 9.0 °F 7.0 °F 59% 30.44 in 10.0 mi ESE 8.1 mph - N/A   Clear
1:53 AM 19.0 °F 8.2 °F 6.1 °F 57% 30.38 in 10.0 mi ESE 9.2 mph 17.3 mph N/A   Clear
2:53 AM 19.9 °F 10.1 °F 6.1 °F 55% 30.40 in 10.0 mi SE 8.1 mph - N/A   Mostly Cloudy
3:53 AM 19.9 °F 10.1 °F 5.0 °F 52% 30.34 in 10.0 mi ESE 8.1 mph - N/A   Overcast
4:53 AM 19.9 °F 10.1 °F 5.0 °F 52% 30.32 in 10.0 mi SE 8.1 mph - N/A   Overcast
5:53 AM 19.9 °F 7.3 °F 3.9 °F 50% 30.27 in 10.0 mi SE 12.7 mph - N/A   Overcast
6:53 AM 19.9 °F 10.1 °F 5.0 °F 52% 30.23 in 10.0 mi ESE 8.1 mph - N/A   Overcast
7:53 AM 19.9 °F 11.1 °F 6.1 °F 55% 30.20 in 10.0 mi SE 6.9 mph - N/A   Overcast
8:31 AM 19.4 °F 10.4 °F 6.8 °F 58% 30.15 in 3.0 mi ESE 6.9 mph - 0.00 in Snow Light Snow
8:34 AM 19.4 °F 9.5 °F 8.6 °F 63% 30.15 in 1.8 mi ESE 8.1 mph - 0.00 in Snow Light Snow
8:53 AM 18.0 °F 8.7 °F 12.0 °F 78% 30.19 in 0.5 mi ESE 6.9 mph - 0.00 in Snow Snow
9:06 AM 17.6 °F 7.3 °F 12.2 °F 79% 30.13 in 0.5 mi SE 8.1 mph - 0.01 in Snow Snow
9:53 AM 18.0 °F 12.7 °F 14.0 °F 84% 30.17 in 0.5 mi East 3.5 mph - 0.03 in Fog , Snow Snow
10:53 AM 18.0 °F 9.8 °F 15.1 °F 88% 30.15 in 0.2 mi East 5.8 mph - 0.06 in Fog , Snow Snow
11:06 AM 17.6 °F 8.2 °F 15.8 °F 93% 30.10 in 0.5 mi ESE 6.9 mph - 0.01 in Fog , Snow Snow
11:16 AM 17.6 °F 9.3 °F 15.8 °F 93% 30.10 in 1.0 mi ESE 5.8 mph - 0.01 in Snow Light Snow
11:29 AM 17.6 °F 9.3 °F 15.8 °F 93% 30.10 in 2.0 mi ESE 5.8 mph - 0.01 in Snow Light Snow
11:40 AM 17.6 °F 12.3 °F 14.0 °F 86% 30.10 in 4.0 mi ESE 3.5 mph - 0.01 in Snow Light Snow
11:53 AM 19.0 °F 13.9 °F 14.0 °F 81% 30.14 in 7.0 mi East 3.5 mph - 0.01 in   Overcast
12:53 PM 19.9 °F 12.1 °F 16.0 °F 85% 30.10 in 10.0 mi South 5.8 mph - N/A   Overcast
1:53 PM 21.0 °F 14.6 °F 16.0 °F 81% 30.08 in 10.0 mi SSW 4.6 mph - N/A   Overcast
2:27 PM 21.2 °F 13.6 °F 15.8 °F 80% 30.02 in 10.0 mi SW 5.8 mph - N/A   Overcast
2:53 PM 21.9 °F 14.5 °F 16.0 °F 78% 30.06 in 10.0 mi SW 5.8 mph - N/A   Overcast
3:00 PM 21.2 °F 13.6 °F 17.6 °F 86% 30.02 in 10.0 mi WSW 5.8 mph - N/A   Overcast
3:46 PM 23.0 °F 13.9 °F 15.8 °F 74% 30.01 in 10.0 mi WSW 8.1 mph - N/A   Overcast
3:53 PM 23.0 °F 14.7 °F 17.1 °F 78% 30.06 in 10.0 mi WSW 6.9 mph - N/A   Overcast
4:37 PM 23.0 °F 14.7 °F 17.6 °F 80% 30.02 in 10.0 mi WSW 6.9 mph - N/A   Overcast
4:53 PM 23.0 °F 14.7 °F 17.1 °F 78% 30.06 in 10.0 mi WSW 6.9 mph - N/A   Overcast
5:53 PM 24.1 °F 17.0 °F 17.1 °F 75% 30.08 in 10.0 mi WSW 5.8 mph - N/A   Overcast
6:11 PM 24.8 °F 19.1 °F 17.6 °F 74% 30.04 in 10.0 mi WSW 4.6 mph - N/A   Overcast
6:53 PM 24.1 °F 17.0 °F 18.0 °F 77% 30.09 in 10.0 mi WSW 5.8 mph - N/A   Overcast
7:53 PM 24.1 °F 15.2 °F 18.0 °F 77% 30.10 in 10.0 mi WSW 8.1 mph - N/A   Overcast
8:53 PM 24.1 °F 16.0 °F 18.0 °F 77% 30.13 in 10.0 mi West 6.9 mph - N/A   Overcast
9:53 PM 24.1 °F 18.2 °F 18.0 °F 77% 30.14 in 10.0 mi SW 4.6 mph - N/A   Overcast
10:19 PM 24.8 °F 16.9 °F 19.4 °F 80% 30.10 in 9.0 mi SSW 6.9 mph - N/A   Overcast
10:53 PM 25.0 °F 16.3 °F 19.0 °F 78% 30.14 in 8.0 mi SW 8.1 mph - N/A   Overcast
11:53 PM 25.0 °F 16.3 °F 19.9 °F 81% 30.14 in 9.0 mi SSW 8.1 mph - N/A   Overcast